Theta_e
287 287 287 286 286 286 286 287 290 291 289 289 288 288 288 288 287 287 287 286 285 285
285 285 285 285 286 286 286 286 288 290 289 288 288 287 287 287 286 286 286 285 285 284
284 285 285 285 284 285 285 286 287 288 289 288 287 287 286 286 286 285 284 284 283 282
283 284 284 284 284 285 285 285 286 287 288 287 286 286 285 285 284 284 282 282 281 280
283 283 283 283 284 284 284 284 285 286 286 286 285 284 284 283 283 282 281 281 280 280
282 283 283 283 283 283 283 283 284 284 285 285 284 283 283 283 282 281 281 280 280 279
282 283 283 283 283 282 283 282 282 283 284 284 283 282 282 282 281 281 280 280 280 280
282 282 283 282 282 282 282 282 282 281 281 282 282 282 281 281 280 280 279 280 280 280
281 281 281 281 281 281 281 281 281 280 280 281 282 285 284 281 280 280 279 279 279 280
281 281 280 281 280 280 280 280 279 279 280 280 282 285 284 282 280 279 278 278 277 277
280 280 280 279 279 278 279 278 278 278 279 280 283 285 284 281 277 275 275 275 274 274
279 278 278 277 275 276 276 276 276 277 279 281 284 285 282 277 274 272 271 272 273 273
277 277 275 275 274 274 275 275 277 277 280 282 282 282 280 275 272 271 271 272 274 277
274 274 274 273 274 275 276 277 278 280 281 280 279 279 279 277 272 271 271 271 273 276
Wind_Speed
10 8 7 9 8 8 9 9 10 10 9 10 10 9 8 7 8 8 6 9 5 4
9 9 9 9 8 7 7 7 10 10 10 10 10 10 10 7 8 8 6 5 5 3
9 8 7 8 9 9 8 9 10 11 10 10 9 10 10 7 6 7 4 3 6 4
7 8 8 8 8 8 7 9 9 10 10 10 9 8 8 7 9 8 7 6 7 6
7 8 8 8 8 8 9 8 9 9 9 9 9 9 9 8 8 9 8 8 8 8
7 8 9 9 8 8 8 7 8 9 10 9 9 10 9 9 8 7 8 8 9 9
7 8 7 7 8 8 8 8 8 8 8 9 9 8 8 9 9 8 8 7 7 8
5 6 7 8 8 7 8 7 7 8 7 8 8 7 10 9 11 11 10 9 9 8
4 5 6 6 7 7 8 8 8 8 9 9 6 17 18 13 11 11 11 11 10 10
5 5 5 6 7 7 8 8 8 8 8 8 8 20 20 20 11 11 11 12 11 9
5 5 6 6 6 6 6 7 8 8 9 9 7 20 22 21 12 11 10 10 10 11
6 6 6 6 6 5 7 7 6 7 10 11 11 22 22 19 12 12 11 9 9 9
5 7 6 6 7 4 6 8 8 9 7 13 14 20 22 19 11 13 9 8 10 17
6 8 8 6 7 8 10 10 11 12 11 13 14 14 21 22 11 11 10 8 7 8
Wind_Direction
176 179 180 176 173 182 189 190 174 177 177 177 177 179 178 181 185 177 183 179 172 180
172 171 181 176 173 177 175 170 168 178 176 179 176 174 171 186 184 178 177 174 173 169
181 182 169 162 178 177 170 166 170 176 176 174 174 173 171 169 174 168 149 151 159 158
176 171 163 175 177 178 163 169 174 179 175 173 170 168 171 169 158 159 152 153 155 146
164 165 169 176 174 164 175 171 171 170 173 168 166 160 161 161 156 155 155 153 144 146
171 172 182 179 169 167 160 166 162 165 172 169 163 157 152 149 145 146 150 154 149 149
173 175 175 161 160 164 164 159 164 170 165 156 148 143 141 141 133 129 128 127 129 137
159 160 156 154 156 151 161 162 153 140 135 139 144 147 140 139 133 132 124 120 119 117
156 154 155 147 150 150 148 142 141 146 144 141 138 155 146 136 130 125 121 115 109 114
151 149 147 141 142 145 146 141 141 135 136 135 140 152 146 137 127 125 124 123 119 106
137 133 136 135 133 123 133 135 135 131 128 131 145 147 138 121 107 102 100 105 109 111
130 129 127 119 116 107 117 113 111 124 131 135 133 135 130 110 102 98 95 99 102 115
114 116 104 112 108 85 94 104 112 113 118 121 121 130 131 118 118 112 112 105 108 106
78 98 108 93 101 109 110 112 115 112 103 104 110 127 131 123 116 121 118 111 111 106